TABS, Texas Automated Buoy System, NOAA HAZMAT, Ocean Observatory, Real Time Oceanographic Data Supporting Oil Spill Prevention and Response

Texas General Land Office  Texas General
 Land Office
 Oil Spill Prevention
 & Response
Texas Automated Buoy System
Real Time Ocean Observations
Supporting Oil Spill Prevention and Response since 1995
Geochemical and Environmental Research Group

TABS Buoy J -- Texas Automated Buoy System

TABS Buoy J Conditions at 08/28/2014 22:30 UTC (08/28/2014 17:30 CDT)
26° 11.4840'N   97° 3.0420'W
AA3900 DCS - sensor depth 2m
Anemometer height: 4m
Water Depth: 68 feet (20 meters)
Speed: 36.33 cm/s (0.71 kts) Direction: 93 °T (E) Water Temp: 27°C (81 °F)
System Voltage: 13.2 V Signal Strength: -2.4 dB Ping Count: 133
Wind: 4.2 m/s (8.1 kts)
          From 157°T (SSE)
Air Temp: 28 °C (82 °F)
Relative Humidity:  N/A
Pressure: 1008.1 mb (29.77 inHg)

  


IMPORTANT: Notice to Mariners


Today's Meteorological Data (download)

   Date   |  Time  |  VEast   North    AirT  AtmPr     Gust   Comp   Tx   Ty    PAR   RelH
          |  (UTC) |  (m/s)|  (m/s)|   (°C)|  (mb) |  (m/s)|  (°M) |    |    |      |  (%) |
==========+========+=======+=======+=======+=======+=======+=======+====+====+======+======+
08/28/2014 00:00:00   -4.43   -5.86    27.7 1010.64    9.63    49.7   11    4    0.0 -999.0
08/28/2014 00:30:00   -4.20   -5.75    27.1 1011.10    8.93    53.3   10    4    0.0 -999.0
08/28/2014 01:00:00   -3.75   -5.97    27.3 1010.95    8.67    51.7   10    4    0.0 -999.0
08/28/2014 01:30:00   -3.64   -4.77    27.4 1011.11    7.47    56.4   10    4    0.0 -999.0
08/28/2014 02:00:00   -3.39   -4.32    27.3 1011.39    6.79    54.6    9    4    0.0 -999.0
08/28/2014 02:30:00   -3.50   -5.04    27.3 1011.64    7.36    55.8    9    3    0.0 -999.0
08/28/2014 03:00:00   -5.02   -4.87    27.0 1011.77    8.92    64.8    9    5    0.0 -999.0
08/28/2014 03:30:00   -3.29   -4.99    27.2 1011.22    7.40    63.0    9    5    0.0 -999.0
08/28/2014 04:00:00   -2.79   -4.76    27.2 1011.19    6.78    59.7    9    4    0.0 -999.0
08/28/2014 04:30:00   -3.71   -2.76    27.2 1011.14    5.83    69.4    8    5    0.0 -999.0
08/28/2014 05:00:00   -3.63   -3.08    27.0 1010.90    5.95    65.2    7    4    0.0 -999.0
08/28/2014 05:30:00   -3.03   -2.86    27.0 1010.87    5.22    65.9    7    4    0.0 -999.0
08/28/2014 06:00:00   -1.60   -3.19    27.1 1010.87    4.52    61.7    6    3    0.0 -999.0
08/28/2014 06:30:00   -0.42   -3.08    26.8 1010.89    4.05    52.3    5    2    0.0 -999.0
08/28/2014 07:00:00    0.69   -2.56    26.7 1010.46    3.45    51.9    5    2    0.0 -999.0
08/28/2014 07:30:00    2.14   -2.18    26.2 1010.34    4.19    39.8    4    1    0.0 -999.0
08/28/2014 08:00:00    2.30   -2.58    26.5 1010.04    4.83    33.7    4    1    0.0 -999.0
08/28/2014 08:30:00    2.51   -3.31    26.4 1009.97    5.30    24.6    4    1    0.0 -999.0
08/28/2014 09:00:00    2.52   -3.85    26.7 1009.68    5.87    14.8    4    1    0.0 -999.0
08/28/2014 09:30:00    3.53   -2.96    26.7 1009.09    5.75   358.1    3    1    0.0 -999.0
08/28/2014 10:00:00    3.86   -2.37    26.5 1009.08    6.34   351.0    3    1    0.0 -999.0
08/28/2014 10:30:00    3.66   -2.42    26.7 1009.03    5.53   349.8    3    1    0.0 -999.0
08/28/2014 11:00:00    5.30   -1.12    26.5 1009.34    6.84   311.6    3    1    0.0 -999.0
08/28/2014 11:30:00    6.21   -1.27    26.4 1009.18    7.87   301.8    3    1    0.0 -999.0
08/28/2014 12:00:00    7.05   -2.07    25.9 1009.18    9.17   302.0    4    2    0.0 -999.0
08/28/2014 12:30:00    7.28   -2.19    25.9 1009.26    9.35   305.9    5    2    0.0 -999.0
08/28/2014 13:00:00    6.61   -2.04    25.8 1009.75    8.70   306.6    4    2    0.0 -999.0
08/28/2014 13:30:00    7.48   -1.89    25.9 1009.37    9.99   303.2    5    2    0.0 -999.0
08/28/2014 14:00:00    7.23   -2.38    25.7 1009.94    9.48   308.4    5    2    0.0 -999.0
08/28/2014 14:30:00    6.35   -1.31    25.8 1010.07    8.36   307.6    5    2    0.0 -999.0
08/28/2014 15:00:00    4.84   -0.16    26.1 1010.06    6.07   311.7    4    1    0.0 -999.0
08/28/2014 15:30:00    4.88   -2.27    26.3 1009.70    7.15   324.4    5    1    0.0 -999.0
08/28/2014 16:00:00    4.54   -3.14    26.7 1009.47    6.76   332.5    5    2    0.0 -999.0
08/28/2014 16:30:00    3.67   -1.96    26.8 1009.87    5.57   342.7    5    2    0.0 -999.0
08/28/2014 17:00:00    0.97   -1.53    26.7 1009.47    2.38     1.8    4    2    0.0 -999.0
08/28/2014 17:30:00   -0.47   -3.38    26.9 1009.06    4.08    10.7    5    3    0.0 -999.0
08/28/2014 18:00:00   -2.75   -3.71    26.4 1008.99    5.92    29.7    5    4    0.0 -999.0
08/28/2014 18:30:00   -1.55   -3.78    26.9 1009.19    4.98    26.2    5    3    0.0 -999.0
08/28/2014 19:00:00   -0.23   -2.81    27.0 1008.79    3.78    22.4    5    3    0.0 -999.0
08/28/2014 19:30:00   -0.03   -1.75    27.2 1008.76    2.50    26.7    5    3    0.0 -999.0
08/28/2014 20:00:00    0.62   -0.59    27.4 1008.46    1.63    27.8    5    3    0.0 -999.0
08/28/2014 20:30:00    0.63    0.00    27.5 1007.54    1.92    28.3    5    3    0.0 -999.0
08/28/2014 21:00:00   -0.83   -0.15    27.7 1007.23    1.93    32.6    5    3    0.0 -999.0
08/28/2014 21:30:00   -2.30    0.30    27.8 1007.74    3.53    49.7    5    3    0.0 -999.0
08/28/2014 22:00:00   -1.53    3.12    27.9 1007.86    5.27    81.3    3    3    0.0 -999.0
08/28/2014 22:30:00   -1.62    3.84    27.8 1008.07    5.39   115.3    2    3    0.0 -999.0